CW6294 Weather Reports


Display with metric or nautical units.
time (UTC)temp
F
wind
direction
speed
MPH
gust
MPH
rain 1hr
in
rain 24hr
in
rain mn
in
humidity
%
barometer
mb
20220816002451 69 294 0.0 4.0 0.00 0.17 0.06 92 1012.6
20220815233951 69 314 1.0 8.0 0.00 0.18 0.06 92 1012.7
20220815230950 70 309 2.0 9.0 0.00 0.19 0.06 92 1012.6
20220815220951 70 306 1.0 11.0 0.00 0.20 0.06 93 1012.7
20220815213950 72 328 1.0 7.0 0.00 0.20 0.06 91 1012.8
20220815205436 72 227 0.0 8.0 0.00 0.20 0.06 94 1012.7
20220815193924 74 229 1.0 9.0 0.00 0.20 0.06 89 1013.0
20220815185428 76 215 0.0 5.0 0.00 0.20 0.06 81 1013.2
20220815180918 76 88 0.0 7.0 0.00 0.20 0.06 83 1013.2
20220815175420 78 101 1.0 6.0 0.00 0.20 0.06 79 1013.3
20220815170904 79 61 0.0 4.0 0.00 0.20 0.06 75 1013.3
20220815163857 78 140 0.0 4.0 0.00 0.20 0.06 78 1013.5
20220815160856 77 94 0.0 4.0 0.00 0.20 0.06 80 1013.5
20220815150836 73 87 0.0 5.0 0.00 0.20 0.06 92 1013.9
20220815140829 70 79 0.0 1.0 0.00 0.20 0.06 100 1013.9
20220815133820 68 71 0.0 2.0 0.00 0.20 0.06 100 1013.8
20220815130810 67 73 0.0 5.0 0.00 0.20 0.06 100 1013.7
20220815123808 67 80 0.0 0.0 0.00 0.20 0.06 100 1013.6
20220815122234 67 80 0.0 0.0 0.00 0.20 0.06 100 1013.3
20220815110707 67 80 0.0 0.0 0.00 0.20 0.06 100 1013.2
20220815103704 66 80 0.0 0.0 0.00 0.20 0.06 100 1012.9
20220815092110 66 80 0.0 2.0 0.00 0.20 0.06 100 1012.8
20220815083602 66 85 0.0 0.0 0.00 0.20 0.06 100 1012.8
20220815070516 66 85 0.0 0.0 0.00 0.20 0.06 100 1013.8
20220815063512 66 86 0.0 1.0 0.00 0.20 0.06 100 1013.9
20220815061952 66 85 0.0 0.0 0.00 0.20 0.06 100 1014.1
20220815054937 67 84 0.0 5.0 0.01 0.20 0.06 100 1014.3
20220815050435 67 22 0.0 1.0 0.05 0.20 0.06 100 1014.8
20220815043425 67 53 0.0 0.0 0.07 0.19 0.05 100 1015.0
20220815040421 68 355 0.0 0.0 0.07 0.15 0.01 100 1015.2
20220815033411 68 355 0.0 0.0 0.06 0.12 0.12 100 1015.2
20220815010324 69 355 0.0 0.0 0.01 0.04 0.04 97 1014.6